Portsmouth Weather Center

Moon Phase Calendar



Online Cameras

 


      

Current Conditions in New Castle
8/9/2022 12:46:46 AM

71°F
Feels Like 72
Clouds
Humidity
90%
Pressure
29.85"
Wind
0
Dew Point
68°F
UV Index
0/10 (Low)
Visibility
6 mi

Hourly Forecast

Date & Time Tue, Aug 9
12:00 AM
Tue, Aug 9
1:00 AM
Tue, Aug 9
2:00 AM
Tue, Aug 9
3:00 AM
Tue, Aug 9
4:00 AM
Tue, Aug 9
5:00 AM
Tue, Aug 9
6:00 AM
Tue, Aug 9
7:00 AM
Tue, Aug 9
8:00 AM
Tue, Aug 9
9:00 AM
Tue, Aug 9
10:00 AM
Tue, Aug 9
11:00 AM
Tue, Aug 9
12:00 PM
Tue, Aug 9
1:00 PM
Tue, Aug 9
2:00 PM
Tue, Aug 9
3:00 PM
Tue, Aug 9
4:00 PM
Tue, Aug 9
5:00 PM
Tue, Aug 9
6:00 PM
Tue, Aug 9
7:00 PM
Tue, Aug 9
8:00 PM
Tue, Aug 9
9:00 PM
Tue, Aug 9
10:00 PM
Tue, Aug 9
11:00 PM
Wed, Aug 10
12:00 AM
Wed, Aug 10
1:00 AM
Wed, Aug 10
2:00 AM
Wed, Aug 10
3:00 AM
Wed, Aug 10
4:00 AM
Wed, Aug 10
5:00 AM
Wed, Aug 10
6:00 AM
Wed, Aug 10
7:00 AM
Wed, Aug 10
8:00 AM
Wed, Aug 10
9:00 AM
Wed, Aug 10
10:00 AM
Wed, Aug 10
11:00 AM
Wed, Aug 10
12:00 PM
Wed, Aug 10
1:00 PM
Wed, Aug 10
2:00 PM
Wed, Aug 10
3:00 PM
Wed, Aug 10
4:00 PM
Wed, Aug 10
5:00 PM
Wed, Aug 10
6:00 PM
Wed, Aug 10
7:00 PM
Wed, Aug 10
8:00 PM
Wed, Aug 10
9:00 PM
Wed, Aug 10
10:00 PM
Wed, Aug 10
11:00 PM
Condition
Clouds

Clouds

Clouds

Clouds

Clouds

Clouds

Clouds

Clouds

Clouds

Clouds

Clouds

Clouds

Clouds

Clouds

Clouds

Clouds

Clouds

Clouds

Clouds

Clouds

Clouds

Clouds

Clouds

Clouds

Clouds

Clouds

Clouds

Clouds

Clouds

Clouds

Clouds

Clouds

Clouds

Clouds

Clouds

Clouds

Clouds

Clouds

Clouds

Clouds

Clouds

Clouds

Clouds

Clouds

Clouds

Clear

Clear

Clear
Temperature 72°F71°F72°F73°F74°F75°F75°F76°F76°F79°F83°F86°F87°F87°F85°F86°F86°F85°F80°F69°F67°F66°F66°F66°F66°F66°F65°F65°F64°F64°F63°F63°F64°F64°F65°F66°F67°F68°F69°F69°F67°F66°F67°F66°F63°F63°F63°F62°F
Feels Like 73°F72°F73°F74°F75°F76°F76°F77°F77°F79°F86°F89°F90°F91°F88°F90°F89°F88°F80°F69°F68°F67°F67°F67°F66°F66°F66°F65°F64°F64°F64°F63°F64°F64°F65°F66°F67°F68°F69°F69°F68°F67°F67°F66°F64°F63°F63°F63°F
Cloudiness 88%100%91%90%93%94%90%82%84%90%95%83%78%82%84%88%94%92%81%81%83%96%96%97%98%98%99%100%100%100%100%100%100%100%100%100%99%97%92%56%72%77%78%72%62%1%1%3%
Visibility 6 mi6 mi6 mi6 mi6 mi6 mi6 mi6 mi6 mi6 mi6 mi6 mi6 mi6 mi6 mi6 mi6 mi6 mi6 mi3 mi6 mi6 mi6 mi6 mi6 mi6 mi6 mi6 mi6 mi6 mi6 mi6 mi6 mi6 mi6 mi6 mi6 mi6 mi6 mi6 mi6 mi6 mi6 mi6 mi6 mi6 mi6 mi6 mi
Precipitation 80%80%76%0%0%0%0%0%6%7%5%10%15%19%24%27%27%31%26%26%26%0%0%0%0%0%0%6%6%6%6%6%14%22%4%0%0%0%0%0%0%0%0%0%0%0%0%0%
Humidity 89%90%89%87%84%80%78%77%76%70%62%56%54%53%58%54%55%52%64%93%93%93%90%89%89%89%86%85%84%85%85%86%85%84%81%80%77%75%74%74%79%81%81%83%91%93%94%94%
Dew Point 69°F68°F69°F69°F69°F68°F68°F68°F68°F68°F68°F68°F68°F68°F68°F67°F67°F66°F66°F66°F65°F64°F63°F63°F62°F62°F61°F60°F59°F59°F59°F59°F59°F59°F59°F59°F60°F60°F60°F60°F60°F60°F60°F61°F61°F61°F61°F61°F
Pressure 29.85"29.85"29.85"29.83"29.83"29.8"29.8"29.8"29.83"29.83"29.83"29.83"29.83"29.83"29.83"29.83"29.83"29.85"29.85"29.91"29.94"30"30"30.03"30.03"30.03"30.03"30.03"30.06"30.06"30.09"30.09"30.12"30.12"30.12"30.12"30.12"30.09"30.09"30.06"30.06"30.06"30.03"30.03"30.03"30.03"30.03"30.03"
Wind Speed 8.4 mph7.7 mph9.4 mph10.3 mph10.9 mph11.2 mph11.3 mph11.5 mph11.4 mph11.7 mph12.6 mph12.6 mph13.4 mph13.3 mph12.3 mph11.9 mph10.1 mph10.4 mph9.9 mph17.1 mph17 mph15.1 mph14 mph13.8 mph13.2 mph12.3 mph11.4 mph10.4 mph9.5 mph8.4 mph7.9 mph8.2 mph8.2 mph7.9 mph7.1 mph6.7 mph6.2 mph6.6 mph6.6 mph7.8 mph8.1 mph8 mph7.8 mph5.9 mph5 mph5.3 mph5.4 mph4.2 mph
Wind
Direction
226°
SW
223°
SW
226°
SW
230°
SW
226°
SW
227°
SW
230°
SW
232°
SW
238°
WSW
247°
WSW
258°
WSW
255°
WSW
259°
W
262°
W
259°
W
273°
W
269°
W
281°
W
32°
NNE
58°
ENE
59°
ENE
61°
ENE
54°
NE
53°
NE
49°
NE
44°
NE
39°
NE
34°
NE
32°
NNE
29°
NNE
27°
NNE
25°
NNE
26°
NNE
31°
NNE
37°
NE
48°
NE
60°
ENE
75°
ENE
91°
E
107°
ESE
113°
ESE
115°
ESE
123°
ESE
121°
ESE
122°
ESE
159°
SSE
180°
S
202°
SSW

Daily Forecast

Date High Low Precip. Humidity
Today
Aug 9

Clouds
87 °F
66 °F
80%
54%
Wednesday
Aug 10

Clouds
69 °F
62 °F
22%
77%
Thursday
Aug 11

Rain
70 °F
62 °F
56%
91%
Friday
Aug 12

Rain
73 °F
64 °F
57%
55%
Saturday
Aug 13

Clear
69 °F
56 °F
0%
56%
Sunday
Aug 14

Clouds
71 °F
57 °F
0%
60%
Monday
Aug 15

Clouds
73 °F
61 °F
0%
64%
Tuesday
Aug 16

Clouds
73 °F
60 °F
0%
55%
Wednesday
Aug 17

Clouds
72 °F
60 °F
0%
56%
Thursday
Aug 18

Rain
73 °F
67 °F
100%
97%
Friday
Aug 19

Rain
78 °F
68 °F
100%
76%
Saturday
Aug 20

Clear
79 °F
63 °F
0%
44%
Sunday
Aug 21

Clear
79 °F
60 °F
0%
45%
Monday
Aug 22

Clouds
75 °F
63 °F
0%
60%
Tuesday
Aug 23

Clouds
76 °F
64 °F
0%
60%
Wednesday
Aug 24

Clouds
75 °F
64 °F
0%
59%

Temperature 8-14 Day Outlook



Precipitation 8-14 Day Outlook




Quick Links
Portsmouth News
Portsmouth Photos
Portsmouth Videos




About Us
Contact Us
Site Map
Search Site
Advertise With Us
   
Portsmouth.USCoast.info
THE PORTSMOUTH WEBSITE

Copyright 2022, Coastal Town
Privacy    |    Legal